When you browse on this site, cookies collect data to enhance your experience and personalize the content and advertising you see.
Visit our Privacy Policy to learn more. By continuing to use the site, you agree to this use of cookies and data.
  • In Lithuania
  • List of Countries
  • For 7 days
  • Water Temperature
  • Weather Map
  • Weather Widgets
  • user-avatar
    Login

    Hourly Weather Ondjiwa

    Today, 17 October, Thursday

    Time Temperature Precipitation Wind Pressure Humidity
    00:00 +28°C° 0 mm 1 mps 667 mmHg 17%
    01:00 +27°C° 0 mm 1 mps 667 mmHg 20%
    02:00 +26°C° 0 mm 1 mps 667 mmHg 22%
    03:00 +25°C° 0 mm 1 mps 667 mmHg 23%
    04:00 +24°C° 0 mm 1 mps 666 mmHg 25%
    05:00 +25°C° 0 mm 2 mps 667 mmHg 23%
    06:00 +26°C° 0 mm 3 mps 668 mmHg 21%
    07:00 +28°C° 0 mm 4 mps 669 mmHg 18%
    08:00 +30°C° 0 mm 5 mps 669 mmHg 16%
    09:00 +34°C° 0 mm 6 mps 669 mmHg 14%
    10:00 +36°C° 0 mm 6 mps 670 mmHg 13%
    11:00 +38°C° 0 mm 6 mps 669 mmHg 12%
    12:00 +39°C° 0 mm 5 mps 669 mmHg 11%
    13:00 +40°C° 0 mm 4 mps 669 mmHg 10%
    14:00 +40°C° 0 mm 4 mps 668 mmHg 10%
    15:00 +40°C° 0 mm 4 mps 667 mmHg 10%
    16:00 +40°C° 0 mm 4 mps 667 mmHg 10%
    17:00 +37°C° 0 mm 3 mps 667 mmHg 11%
    18:00 +35°C° 0 mm 3 mps 667 mmHg 13%
    19:00 +32°C° 0 mm 2 mps 667 mmHg 15%
    20:00 +31°C° 0 mm 2 mps 667 mmHg 15%
    21:00 +30°C° 0 mm 2 mps 667 mmHg 16%
    22:00 +29°C° 0 mm 2 mps 667 mmHg 17%
    23:00 +28°C° 0 mm 2 mps 667 mmHg 18%

    Tomorrow, 18 October, Friday

    Time Temperature Precipitation Wind Pressure Humidity
    00:00 +27°C° 0 mm 2 mps 667 mmHg 18%
    01:00 +26°C° 0 mm 2 mps 667 mmHg 19%
    02:00 +26°C° 0 mm 2 mps 666 mmHg 20%
    03:00 +25°C° 0 mm 2 mps 666 mmHg 21%
    04:00 +24°C° 0 mm 2 mps 666 mmHg 22%
    05:00 +25°C° 0 mm 2 mps 666 mmHg 22%
    06:00 +26°C° 0 mm 2 mps 667 mmHg 22%
    07:00 +26°C° 0 mm 1 mps 668 mmHg 22%
    08:00 +29°C° 0 mm 3 mps 668 mmHg 18%
    09:00 +33°C° 0 mm 4 mps 669 mmHg 14%
    10:00 +36°C° 0 mm 5 mps 669 mmHg 10%
    11:00 +37°C° 0 mm 4 mps 669 mmHg 9%
    12:00 +38°C° 0 mm 3 mps 668 mmHg 9%
    13:00 +39°C° 0 mm 3 mps 667 mmHg 8%
    14:00 +39°C° 0 mm 2 mps 667 mmHg 8%
    15:00 +39°C° 0 mm 2 mps 666 mmHg 8%
    16:00 +39°C° 0 mm 1 mps 666 mmHg 8%
    17:00 +37°C° 0 mm 2 mps 665 mmHg 9%
    18:00 +35°C° 0 mm 2 mps 665 mmHg 11%
    19:00 +32°C° 0 mm 2 mps 665 mmHg 12%
    20:00 +31°C° 0 mm 2 mps 666 mmHg 13%
    21:00 +30°C° 0 mm 2 mps 666 mmHg 14%
    22:00 +29°C° 0 mm 2 mps 666 mmHg 15%
    23:00 +28°C° 0 mm 1 mps 666 mmHg 16%

    Day after tomorrow, 19 October, Saturday

    Time Temperature Precipitation Wind Pressure Humidity
    00:00 +27°C° 0 mm 1 mps 666 mmHg 16%
    01:00 +27°C° 0 mm 1 mps 666 mmHg 16%
    02:00 +26°C° 0 mm 1 mps 665 mmHg 17%
    03:00 +25°C° 0 mm 1 mps 665 mmHg 18%
    04:00 +24°C° 0 mm 1 mps 665 mmHg 18%
    05:00 +25°C° 0 mm 1 mps 666 mmHg 17%
    06:00 +26°C° 0 mm 2 mps 667 mmHg 16%
    07:00 +27°C° 0 mm 2 mps 667 mmHg 15%
    08:00 +30°C° 0 mm 3 mps 668 mmHg 12%
    09:00 +34°C° 0 mm 4 mps 668 mmHg 9%
    10:00 +37°C° 0 mm 4 mps 669 mmHg 7%
    11:00 +38°C° 0 mm 4 mps 668 mmHg 6%
    12:00 +40°C° 0 mm 4 mps 668 mmHg 6%
    13:00 +41°C° 0 mm 4 mps 667 mmHg 5%
    14:00 +41°C° 0 mm 4 mps 667 mmHg 5%
    15:00 +40°C° 0 mm 3 mps 666 mmHg 5%
    16:00 +40°C° 0 mm 3 mps 665 mmHg 5%
    17:00 +37°C° 0 mm 2 mps 665 mmHg 6%
    18:00 +34°C° 0 mm 1 mps 665 mmHg 7%
    19:00 +30°C° 0 mm 0 mps 665 mmHg 8%
    20:00 +29°C° 0 mm 0 mps 665 mmHg 8%
    21:00 +30°C° 0 mm 1 mps 665 mmHg 9%
    22:00 +29°C° 0 mm 1 mps 666 mmHg 9%
    23:00 +28°C° 0 mm 2 mps 666 mmHg 10%

    20 October, Sunday

    Time Temperature Precipitation Wind Pressure Humidity
    00:00 +27°C° 0 mm 2 mps 666 mmHg 11%
    01:00 +27°C° 0 mm 3 mps 666 mmHg 12%
    02:00 +26°C° 0 mm 2 mps 665 mmHg 18%
    03:00 +25°C° 0 mm 2 mps 665 mmHg 23%
    04:00 +24°C° 0 mm 2 mps 665 mmHg 28%
    05:00 +25°C° 0 mm 2 mps 666 mmHg 28%
    06:00 +25°C° 0 mm 2 mps 666 mmHg 27%
    07:00 +26°C° 0 mm 3 mps 667 mmHg 26%
    08:00 +30°C° 0 mm 3 mps 668 mmHg 20%
    09:00 +34°C° 0 mm 3 mps 668 mmHg 14%
    10:00 +37°C° 0 mm 3 mps 669 mmHg 7%
    11:00 +38°C° 0 mm 3 mps 668 mmHg 6%
    12:00 +41°C° 0 mm 4 mps 668 mmHg 6%
    13:00 +42°C° 0 mm 4 mps 667 mmHg 5%
    14:00 +42°C° 0 mm 4 mps 667 mmHg 5%
    15:00 +42°C° 0 mm 3 mps 666 mmHg 5%
    16:00 +40°C° 0 mm 3 mps 666 mmHg 5%
    17:00 +38°C° 0 mm 2 mps 665 mmHg 6%
    18:00 +34°C° 0 mm 1 mps 665 mmHg 7%
    19:00 +30°C° 0 mm 0 mps 665 mmHg 8%
    20:00 +29°C° 0 mm 0 mps 665 mmHg 9%
    21:00 +28°C° 0 mm 0 mps 665 mmHg 9%
    22:00 +29°C° 0 mm 1 mps 666 mmHg 10%
    23:00 +29°C° 0 mm 1 mps 666 mmHg 12%

    21 October, Monday

    Time Temperature Precipitation Wind Pressure Humidity
    00:00 +28°C° 0 mm 2 mps 665 mmHg 14%
    01:00 +27°C° 0 mm 3 mps 665 mmHg 16%
    02:00 +26°C° 0 mm 3 mps 665 mmHg 20%
    03:00 +25°C° 0 mm 3 mps 665 mmHg 25%
    04:00 +24°C° 0 mm 2 mps 665 mmHg 30%
    05:00 +25°C° 0 mm 2 mps 665 mmHg 28%
    06:00 +26°C° 0 mm 2 mps 666 mmHg 26%
    07:00 +27°C° 0 mm 2 mps 666 mmHg 24%
    08:00 +31°C° 0 mm 2 mps 667 mmHg 19%
    09:00 +35°C° 0 mm 2 mps 668 mmHg 15%
    10:00 +37°C° 0 mm 1 mps 668 mmHg 10%
    11:00 +39°C° 0 mm 2 mps 667 mmHg 9%
    12:00 +40°C° 0 mm 2 mps 667 mmHg 7%
    13:00 +42°C° 0 mm 3 mps 666 mmHg 5%
    14:00 +41°C° 0 mm 2 mps 666 mmHg 5%
    15:00 +41°C° 0 mm 2 mps 665 mmHg 5%
    16:00 +41°C° 0 mm 2 mps 664 mmHg 5%
    17:00 +39°C° 0 mm 1 mps 664 mmHg 6%
    18:00 +35°C° 0 mm 1 mps 664 mmHg 7%
    19:00 +33°C° 0 mm 1 mps 664 mmHg 8%
    20:00 +32°C° 0 mm 2 mps 664 mmHg 10%
    21:00 +31°C° 0 mm 2 mps 665 mmHg 11%
    22:00 +30°C° 0 mm 3 mps 665 mmHg 13%
    23:00 +29°C° 0 mm 3 mps 665 mmHg 15%

    22 October, Tuesday

    Time Temperature Precipitation Wind Pressure Humidity
    00:00 +28°C° 0 mm 3 mps 665 mmHg 17%
    01:00 +27°C° 0 mm 3 mps 665 mmHg 18%
    02:00 +26°C° 0 mm 3 mps 665 mmHg 18%
    03:00 +25°C° 0 mm 2 mps 664 mmHg 18%
    04:00 +24°C° 0 mm 2 mps 664 mmHg 18%
    05:00 +25°C° 0 mm 2 mps 665 mmHg 17%
    06:00 +25°C° 0 mm 3 mps 665 mmHg 15%
    07:00 +26°C° 0 mm 4 mps 666 mmHg 13%
    08:00 +29°C° 0 mm 4 mps 666 mmHg 12%
    09:00 +33°C° 0 mm 5 mps 666 mmHg 10%
    10:00 +35°C° 0 mm 5 mps 667 mmHg 8%
    11:00 +37°C° 0 mm 5 mps 666 mmHg 7%
    12:00 +39°C° 0 mm 5 mps 666 mmHg 7%
    13:00 +41°C° 0 mm 5 mps 665 mmHg 6%
    14:00 +41°C° 0 mm 5 mps 665 mmHg 6%
    15:00 +41°C° 0 mm 4 mps 664 mmHg 6%
    16:00 +41°C° 0 mm 4 mps 664 mmHg 6%
    17:00 +38°C° 0 mm 4 mps 664 mmHg 7%
    18:00 +35°C° 0 mm 4 mps 664 mmHg 8%
    19:00 +33°C° 0 mm 4 mps 664 mmHg 8%
    20:00 +32°C° 0 mm 5 mps 664 mmHg 9%
    21:00 +30°C° 0 mm 5 mps 664 mmHg 10%
    22:00 +29°C° 0 mm 5 mps 665 mmHg 10%
    23:00 +27°C° 0 mm 4 mps 665 mmHg 12%
    Show more